Morris, IL

1:19 PM CDT on August 27, 2016 (GMT -0500)
Morris

Weather History for KC09 - August, 2013

Change the Weather History Date:

Tuesday, August 6, 2013

  Actual Average (KLOT) Record (KLOT)
Temperature  
Mean Temperature 73 °F 73 °F  
Max Temperature 83 °F 83 °F 91 °F (2001)
Min Temperature 63 °F 64 °F 50 °F (1994)
Degree Days  
Heating Degree Days 0 0  
Month to date heating degree days 0  
Since 1 June heating degree days 35  
Since 1 July heating degree days 2  
Cooling Degree Days 8 8  
Month to date cooling degree days 48  
Year to date cooling degree days 568  
Since 1 June cooling degree days 510  
Growing Degree Days 23 (Base 50)    
Moisture  
Dew Point 69 °F    
Average Humidity 88    
Maximum Humidity 100    
Minimum Humidity 68    
Precipitation  
Precipitation 0.00 in 0.13 in 0.56 in (2003)
Month to date precipitation 0.78  
Year to date precipitation 24.53  
Sea Level Pressure  
Sea Level Pressure 29.88 in    
Wind  
Wind Speed 4 mph (South)    
Max Wind Speed 10 mph    
Max Gust Speed -    
Visibility 8 miles    
Events Fog    
T = Trace of Precipitation, MM = Missing Value Source: NWS Daily Summary

Daily Weather History Graph

Daily Weather History Graph

Search for Another Location

Airport or City:

Trip Planner

Search our weather history database for the weather conditions in past years. The results will help you decide how hot, cold, wet, or windy it might be!

Date:

Astronomy

Aug. 06, 2013 Rise Set
Actual Time 5:53 AM CDT 8:04 PM CDT
Civil Twilight 5:23 AM CDT 8:35 PM CDT
Nautical Twilight 4:45 AM CDT 9:12 PM CDT
Astronomical Twilight 4:03 AM CDT 9:53 PM CDT
Moon 5:45 AM CDT (8/6) 7:38 PM CDT (8/6)
Length of Visible Light 15h 11m
Length of Day
14h 10m
Waning Crescent, 0% of the Moon is Illuminated
Aug 6
Waning Crescent
Aug 6
New
Aug 14
First Quarter
Aug 20
Full
Aug 28
Last Quarter

Hourly Weather History & Observations

Time (CDT) Temp. Heat Index Dew Point Humidity Pressure Visibility Wind Dir Wind Speed Gust Speed Precip Events Conditions
12:15 AM 67.1 °F - 64.9 °F 93% 29.89 in 10.0 mi SSE 3.5 mph - N/A   Scattered Clouds
12:35 AM 67.3 °F - 65.3 °F 93% 29.89 in 10.0 mi SE 3.5 mph - N/A   Mostly Cloudy
12:55 AM 67.8 °F - 65.8 °F 93% 29.89 in 10.0 mi SSE 4.6 mph - N/A   Overcast
1:15 AM 68.0 °F - 66.2 °F 94% 29.89 in 10.0 mi SSE 4.6 mph - N/A   Overcast
1:35 AM 68.0 °F - 66.2 °F 94% 29.89 in 10.0 mi South 5.8 mph - N/A   Overcast
1:55 AM 68.2 °F - 66.2 °F 93% 29.89 in 10.0 mi SW 4.6 mph - N/A   Overcast
2:15 AM 67.6 °F - 65.8 °F 94% 29.89 in 10.0 mi Calm Calm - N/A   Mostly Cloudy
2:35 AM 66.9 °F - 65.3 °F 95% 29.88 in 10.0 mi Calm Calm - N/A   Scattered Clouds
2:55 AM 66.2 °F - 64.9 °F 96% 29.88 in 10.0 mi Calm Calm - N/A   Clear
3:15 AM 65.8 °F - 65.1 °F 98% 29.87 in 10.0 mi Calm Calm - N/A   Clear
3:35 AM 66.2 °F - 65.3 °F 97% 29.87 in 10.0 mi Calm Calm - N/A   Clear
3:55 AM 65.3 °F - 64.6 °F 98% 29.85 in 5.0 mi Calm Calm - N/A   Clear
4:15 AM 65.3 °F - 64.8 °F 98% 29.86 in 3.0 mi SW 3.5 mph - N/A   Clear
4:35 AM 64.9 °F - 64.6 °F 99% 29.86 in 7.0 mi Calm Calm - N/A   Clear
4:55 AM 64.4 °F - 64.0 °F 99% 29.87 in 4.0 mi Calm Calm - N/A   Clear
5:15 AM 63.9 °F - 63.7 °F 99% 29.86 in 0.5 mi Calm Calm - N/A Fog Fog
5:35 AM 63.1 °F - 63.1 °F 100% 29.87 in 1.2 mi Calm Calm - N/A   Overcast
5:55 AM 64.8 °F - 64.8 °F 100% 29.87 in 3.0 mi SSE 3.5 mph - N/A   Overcast
6:15 AM 65.8 °F - 65.8 °F 100% 29.88 in 2.0 mi South 4.6 mph - N/A   Overcast
6:35 AM 66.2 °F - 66.2 °F 100% 29.89 in 2.0 mi South 5.8 mph - N/A   Overcast
6:55 AM 66.6 °F - 66.6 °F 100% 29.90 in 3.0 mi South 5.8 mph - N/A   Overcast
7:15 AM 66.4 °F - 66.4 °F 100% 29.90 in 4.0 mi Calm Calm - N/A   Overcast
7:35 AM 67.1 °F - 66.9 °F 99% 29.90 in 5.0 mi South 5.8 mph - N/A   Overcast
7:55 AM 67.3 °F - 67.1 °F 99% 29.90 in 7.0 mi SSW 6.9 mph - N/A   Overcast
8:15 AM 67.8 °F - 67.1 °F 98% 29.91 in 5.0 mi SSW 8.1 mph - N/A   Overcast
8:35 AM 68.4 °F - 67.6 °F 98% 29.91 in 5.0 mi SSW 10.4 mph - N/A   Overcast
8:55 AM 68.9 °F - 67.8 °F 96% 29.90 in 5.0 mi SW 8.1 mph - N/A   Overcast
9:15 AM 69.3 °F - 68.2 °F 96% 29.89 in 5.0 mi SW 5.8 mph - N/A   Overcast
9:35 AM 69.8 °F - 68.4 °F 95% 29.90 in 5.0 mi SW 5.8 mph - N/A   Overcast
9:55 AM 70.2 °F - 68.7 °F 95% 29.91 in 7.0 mi WSW 6.9 mph - N/A   Overcast
10:15 AM 70.7 °F - 68.7 °F 93% 29.92 in 5.0 mi West 5.8 mph - N/A   Overcast
10:35 AM 71.2 °F - 69.1 °F 93% 29.92 in 5.0 mi WSW 5.8 mph - N/A   Overcast
10:55 AM 72.0 °F - 69.4 °F 92% 29.91 in 5.0 mi Calm Calm - N/A   Overcast
11:15 AM 73.0 °F - 70.0 °F 90% 29.91 in 5.0 mi Calm Calm - N/A   Overcast
11:35 AM 74.5 °F - 70.5 °F 87% 29.91 in 5.0 mi SSW 4.6 mph - N/A   Overcast
11:55 AM 75.6 °F - 71.8 °F 88% 29.90 in 7.0 mi SW 4.6 mph - N/A   Overcast
12:15 PM 75.2 °F - 70.9 °F 86% 29.90 in 7.0 mi Calm Calm - N/A   Overcast
12:35 PM 76.5 °F - 71.2 °F 84% 29.90 in 10.0 mi Calm Calm - N/A   Overcast
12:55 PM 78.3 °F - 71.2 °F 79% 29.89 in 10.0 mi Calm Calm - N/A   Mostly Cloudy
1:15 PM 79.2 °F - 71.4 °F 77% 29.89 in 10.0 mi Calm Calm - N/A   Scattered Clouds
1:35 PM 80.2 °F 84.2 °F 72.1 °F 76% 29.87 in 10.0 mi SSE 3.5 mph - N/A   Scattered Clouds
1:55 PM 81.0 °F 84.7 °F 70.9 °F 71% 29.86 in 10.0 mi SSE 5.8 mph - N/A   Scattered Clouds
2:15 PM 81.5 °F 85.7 °F 71.4 °F 71% 29.87 in 10.0 mi SSE 5.8 mph - N/A   Scattered Clouds
2:35 PM 81.0 °F 84.9 °F 71.1 °F 72% 29.86 in 10.0 mi South 6.9 mph - N/A   Scattered Clouds
2:55 PM 82.6 °F 87.6 °F 71.8 °F 70% 29.85 in 10.0 mi SSE 8.1 mph - N/A   Scattered Clouds
3:15 PM 82.2 °F 87.1 °F 72.0 °F 71% 29.85 in 10.0 mi South 6.9 mph - N/A   Mostly Cloudy
3:35 PM 83.7 °F 89.4 °F 72.3 °F 69% 29.85 in 10.0 mi SSW 8.1 mph - N/A   Mostly Cloudy
3:55 PM 82.8 °F 87.4 °F 71.2 °F 68% 29.84 in 10.0 mi SSW 6.9 mph - N/A   Scattered Clouds
4:15 PM 82.4 °F 86.7 °F 70.7 °F 68% 29.85 in 10.0 mi South 6.9 mph - N/A   Scattered Clouds
4:35 PM 82.4 °F 86.7 °F 71.1 °F 68% 29.85 in 10.0 mi South 8.1 mph - N/A   Scattered Clouds
4:55 PM 81.1 °F 85.0 °F 71.1 °F 71% 29.85 in 10.0 mi South 8.1 mph - N/A   Scattered Clouds
5:15 PM 80.4 °F 84.1 °F 70.9 °F 73% 29.85 in 10.0 mi South 8.1 mph - N/A   Clear
5:35 PM 79.9 °F - 70.7 °F 73% 29.86 in 10.0 mi South 8.1 mph - N/A   Scattered Clouds
5:55 PM 79.3 °F - 71.1 °F 76% 29.85 in 10.0 mi South 8.1 mph - N/A   Mostly Cloudy
6:15 PM 79.0 °F - 70.7 °F 76% 29.86 in 10.0 mi South 5.8 mph - N/A   Scattered Clouds
6:35 PM 78.3 °F - 70.9 °F 78% 29.86 in 10.0 mi South 5.8 mph - N/A   Scattered Clouds
6:55 PM 77.9 °F - 71.1 °F 79% 29.85 in 10.0 mi South 5.8 mph - N/A   Clear
7:15 PM 77.9 °F - 70.7 °F 78% 29.85 in 10.0 mi South 6.9 mph - N/A   Clear
7:35 PM 77.9 °F - 70.7 °F 78% 29.85 in 10.0 mi South 5.8 mph - N/A   Clear
7:55 PM 77.2 °F - 71.1 °F 81% 29.85 in 10.0 mi SSE 6.9 mph - N/A   Clear
8:15 PM 76.1 °F - 71.2 °F 85% 29.86 in 10.0 mi SSE 6.9 mph - N/A   Clear
8:35 PM 75.2 °F - 72.5 °F 91% 29.86 in 10.0 mi SSE 8.1 mph - N/A   Clear
8:55 PM 74.7 °F - 72.5 °F 93% 29.86 in 10.0 mi SSE 6.9 mph - N/A   Clear
9:15 PM 73.9 °F - 72.0 °F 93% 29.86 in 7.0 mi SSE 5.8 mph - N/A   Clear
9:35 PM 73.8 °F - 72.0 °F 94% 29.87 in 7.0 mi South 5.8 mph - N/A   Clear
9:55 PM 73.9 °F - 72.3 °F 95% 29.87 in 7.0 mi SSE 8.1 mph - N/A   Scattered Clouds
10:15 PM 73.8 °F - 72.1 °F 95% 29.87 in 7.0 mi South 6.9 mph - N/A   Scattered Clouds
10:35 PM 73.4 °F - 72.0 °F 95% 29.86 in 5.0 mi South 5.8 mph - N/A   Clear
10:55 PM 73.6 °F - 72.1 °F 95% 29.87 in 5.0 mi South 5.8 mph - N/A   Clear
11:15 PM 73.6 °F - 72.0 °F 95% 29.86 in 7.0 mi South 5.8 mph - N/A   Clear
11:35 PM 73.4 °F - 71.8 °F 95% 29.85 in 7.0 mi South 5.8 mph - N/A   Clear
11:55 PM 73.4 °F - 71.6 °F 94% 29.85 in 7.0 mi SSW 5.8 mph - N/A   Clear